FENGYUN 1C DEB

Satellite information

Favourite Embed

Satellite Type and Status

DEBRISIN ORBIT

Key statistics

Satellite FENGYUN 1C DEB at a glance.

Uptime

9662

Days in orbit

Revolutions

≈ 13.9

Per day

Orbit

SSO

Sun Synchronous Orbit

Inclination

99.4

Latest

Satellite identification and parameters

Extended collection of information and parameters for FENGYUN 1C DEB.

Object identification

Identified? True

Debris? True

Object name: FENGYUN 1C DEB

International designator: 1999-025CAQ

Object number (NORAD): 31634

Object ID (CCSDS): 31634

Country: PEOPLES REPUBLIC OF CHINA (PRC)

Current information (Y/N): Y

RCS size: SMALL

Orbital parameters

Period: 103.256 minutes

Inclination: 99.3755 deg

SMA: 7290.709 km

Apoapsis: 978.648 km

Periapsis: 846.499 km

RAAN: 332.4749 deg

Eccentricy: 0.00906281

Argument of periapsis: 320.4224 deg

Mean anomaly: 39.0342 deg

Mean motion: 13.94595123 rev/day

Mean motion (dot): 0.00000339 rev/day2

B* drag term: 0.00027894555 1/REarth

Two-line elements (TLE)

Creation date: Oct. 14, 2025, 2:50 a.m.

Reference frame: TEME

Reference center: EARTH

Epoch: Oct. 13, 2025, 8:56 p.m. UTC

TLE line 0: 0 FENGYUN 1C DEB

TLE line 1: 1 31634U 99025CAQ 25286.87286898 .00000339 00000-0 27895-3 0 9990

TLE line 2: 2 31634 99.3755 332.4749 0090628 320.4224 39.0342 13.94595123556897

Live tracking on map

Real-time ground track for satellite FENGYUN 1C DEB.

In-orbit conjunctions

A list of the most updated potential collisions computed for object FENGYUN 1C DEB.

Target Orbit TCA Probability of collision Miss distance Type
THORAD AGENA D DEB SSO 2024-09-24 18:51:07 0.002473578 147.0 (m) DEBRIS
YAOGAN 4 DEB SSO 2024-07-19 14:53:46 0.0001624683 175.0 (m) DEBRIS
COSMOS 1275 LEO 2024-06-08 14:42:14 0.0001101891 841.0 (m) PAYLOAD

Associated space launch

Chinese polar orbiting meteorological satellite

FENGYUN 1C DEB was lifted into orbit during the mission ‘Long March 4B | Feng Yun 1C’, on board a Long March 4B space rocket.

The launch took place on May 10, 1999, 1:33 a.m. from Launch Complex 7.

For more information about the launch, click the button.

Launch to space Long March 4B | Feng Yun 1C
Long March 4B | Feng Yun 1C

Agency: N/A

Status: Launch Successful

Launch date: May 10, 1999, 1:33 a.m. UTC

Rocket: Long March 4B

Launch pad: Launch Complex 7

Location: Taiyuan Satellite Launch Center, People's Republic of China

...

Latest news about this satellite

There are no fresh news available about this satellite. Check back as we update our databases every day.


Newsletter sign-up

Weekly statistics, charts and insights to help you stay on top of the space industry.